EW5657 Weather Reports


Display with metric or nautical units.
time (UTC)temp
F
wind
direction
speed
MPH
gust
MPH
rain 1hr
in
rain 24hr
in
rain mn
in
humidity
%
barometer
mb
20260507232019 57 226 2.0 6.0 0.00 0.11 0.00 87 1023.5
20260507231520 57 217 2.0 6.0 0.00 0.11 0.00 88 1023.6
20260507231020 57 232 2.0 6.0 0.00 0.12 0.00 87 1023.4
20260507230520 57 215 1.0 9.0 0.00 0.12 0.00 87 1023.4
20260507230017 57 240 2.0 9.0 0.00 0.12 0.00 88 1023.5
20260507225519 57 210 2.0 9.0 0.00 0.12 0.00 88 1023.6
20260507225019 57 226 1.0 8.0 0.00 0.13 0.00 88 1023.6
20260507224515 57 185 1.0 8.0 0.00 0.15 0.00 88 1023.5
20260507224015 57 219 1.0 6.0 0.00 0.15 0.00 88 1023.4
20260507223515 57 241 1.0 12.0 0.00 0.15 0.00 88 1023.2
20260507223015 57 231 2.0 12.0 0.00 0.16 0.00 88 1023.2
20260507222515 56 262 2.0 9.0 0.00 0.16 0.00 88 1023.2
20260507222016 56 219 2.0 9.0 0.00 0.16 0.00 88 1023.2
20260507221517 56 175 1.0 6.0 0.00 0.16 0.00 89 1023.2
20260507221015 56 203 2.0 6.0 0.00 0.16 0.00 89 1023.2
20260507220515 56 235 2.0 6.0 0.00 0.16 0.00 89 1023.1
20260507220015 56 229 1.0 6.0 0.00 0.16 0.00 89 1023.1
20260507215517 56 228 1.0 6.0 0.00 0.16 0.00 89 1022.9
20260507215017 56 316 1.0 6.0 0.00 0.16 0.00 89 1022.9
20260507214515 56 241 1.0 9.0 0.00 0.16 0.00 89 1022.7
20260507214015 56 239 2.0 9.0 0.00 0.16 0.00 89 1022.6
20260507213521 56 242 2.0 9.0 0.00 0.17 0.00 89 1022.4
20260507213515 56 247 2.0 9.0 0.00 0.17 0.00 89 1022.5
20260507212516 56 241 2.0 9.0 0.00 0.17 0.00 89 1022.4
20260507212016 56 205 2.0 10.0 0.00 0.17 0.00 88 1022.3
20260507211521 56 239 2.0 11.0 0.00 0.17 0.00 88 1022.2
20260507211515 56 227 2.0 10.0 0.00 0.17 0.00 88 1022.3
20260507211144 56 264 3.0 11.0 0.00 0.18 0.00 88 1022.1
20260507210515 56 284 2.0 11.0 0.00 0.17 0.00 88 1022.2
20260507205515 56 260 2.0 9.0 0.00 0.18 0.00 88 1022.1
20260507205018 57 215 2.0 12.0 0.00 0.19 0.00 87 1021.9
20260507205013 56 203 2.0 8.0 0.00 0.19 0.00 87 1022.1
20260507204011 57 258 3.0 12.0 0.00 0.20 0.00 87 1022.0
20260507203511 57 245 3.0 10.0 0.00 0.20 0.00 87 1021.9
20260507203011 57 241 3.0 12.0 0.00 0.20 0.00 87 1021.9
20260507202515 57 273 2.0 9.0 0.00 0.20 0.00 87 1021.7
20260507202509 57 270 2.0 12.0 0.00 0.20 0.00 87 1021.9
20260507201516 57 238 3.0 12.0 0.00 0.22 0.00 86 1021.6
20260507201511 57 237 3.0 13.0 0.00 0.20 0.00 87 1021.7
20260507201009 57 249 3.0 13.0 0.00 0.21 0.00 86 1021.7
20260507200008 57 210 3.0 10.0 0.00 0.23 0.00 86 1021.5
20260507195507 57 210 3.0 12.0 0.00 0.24 0.00 86 1021.5
20260507195007 57 245 3.0 13.0 0.00 0.24 0.00 87 1021.5
20260507194509 57 256 2.0 12.0 0.00 0.24 0.00 87 1021.4
20260507194013 57 224 3.0 11.0 0.00 0.24 0.00 87 1021.3
20260507194009 57 180 2.0 9.0 0.00 0.24 0.00 87 1021.3
20260507193638 57 229 3.0 13.0 0.00 0.24 0.00 87 1021.2
20260507192507 57 214 3.0 13.0 0.00 0.24 0.00 87 1021.2
20260507192009 57 253 3.0 12.0 0.00 0.24 0.00 87 1021.1
20260507191507 57 259 2.0 8.0 0.00 0.24 0.00 87 1021.1
20260507191012 57 251 2.0 9.0 0.00 0.24 0.00 87 1021.1
20260507191006 57 210 2.0 8.0 0.00 0.24 0.00 87 1021.2
20260507190636 57 204 2.0 9.0 0.00 0.24 0.00 87 1021.1
20260507190136 57 239 2.0 8.0 0.00 0.24 0.00 87 1021.1
20260507185008 57 207 2.0 9.0 0.00 0.25 0.00 87 1021.0
20260507184507 57 250 2.0 9.0 0.00 0.26 0.00 87 1020.9
20260507184007 57 265 1.0 5.0 0.00 0.26 0.00 87 1020.9
20260507183512 57 226 2.0 11.0 0.00 0.26 0.00 87 1020.8
20260507183506 57 246 1.0 7.0 0.00 0.26 0.00 87 1020.9
20260507182505 57 267 2.0 11.0 0.00 0.27 0.00 87 1020.8
20260507182007 57 229 2.0 10.0 0.00 0.28 0.00 87 1020.8
20260507181504 57 245 1.0 10.0 0.00 0.30 0.00 87 1020.7
20260507181005 57 231 2.0 10.0 0.00 0.31 0.00 87 1020.7
20260507180513 57 193 2.0 10.0 0.00 0.31 0.00 86 1020.7
20260507180506 57 266 2.0 10.0 0.00 0.31 0.00 87 1020.6
20260507175505 57 279 2.0 10.0 0.00 0.31 0.00 86 1020.5
20260507175005 57 185 2.0 9.0 0.00 0.31 0.00 86 1020.5
20260507174509 57 243 2.0 12.0 0.00 0.31 0.00 86 1020.5
20260507174505 57 267 2.0 12.0 0.00 0.31 0.00 86 1020.4
20260507173502 57 314 2.0 11.0 0.00 0.31 0.00 86 1020.4
20260507173009 56 255 2.0 10.0 0.00 0.31 0.00 86 1020.5
20260507173003 56 239 2.0 11.0 0.00 0.31 0.00 86 1020.6
20260507172003 56 281 2.0 10.0 0.00 0.31 0.00 86 1020.5
20260507171503 56 209 2.0 10.0 0.00 0.31 0.00 86 1020.4
20260507171003 56 266 3.0 14.0 0.00 0.31 0.00 86 1020.5
20260507170510 56 283 3.0 11.0 0.00 0.31 0.00 86 1020.4
20260507170502 56 232 3.0 14.0 0.00 0.31 0.00 86 1020.6
20260507165503 56 242 3.0 11.0 0.00 0.31 0.00 86 1020.5
20260507165006 56 273 2.0 9.0 0.00 0.31 0.00 86 1020.5
20260507164505 56 250 2.0 10.0 0.00 0.31 0.00 85 1020.5
20260507164004 56 204 2.0 10.0 0.00 0.31 0.00 85 1020.6
20260507163504 56 274 2.0 9.0 0.00 0.31 0.00 85 1020.6
20260507163009 56 222 2.0 13.0 0.00 0.31 0.00 85 1020.7
20260507163003 56 224 2.0 13.0 0.00 0.31 0.00 85 1020.6
20260507162002 56 248 2.0 12.0 0.00 0.31 0.00 85 1020.7
20260507161503 56 342 2.0 12.0 0.00 0.31 0.00 85 1020.7
20260507161008 56 257 3.0 13.0 0.00 0.31 0.00 85 1020.7
20260507161002 56 256 2.0 13.0 0.00 0.31 0.00 85 1020.6
20260507160002 56 269 2.0 11.0 0.00 0.31 0.00 85 1020.7
20260507155503 56 271 2.0 11.0 0.00 0.31 0.00 85 1020.8
20260507155000 56 226 2.0 10.0 0.00 0.31 0.00 85 1020.8
20260507154500 56 241 2.0 10.0 0.00 0.31 0.00 85 1020.8
20260507154002 56 250 2.0 9.0 0.00 0.31 0.00 85 1020.9
20260507153502 56 310 2.0 11.0 0.00 0.31 0.00 85 1020.9
20260507152959 56 223 2.0 13.0 0.00 0.31 0.00 85 1021.0
20260507152505 56 256 2.0 11.0 0.00 0.31 0.00 85 1021.2
20260507152500 56 204 2.0 13.0 0.00 0.31 0.00 85 1021.0
20260507151958 56 251 2.0 7.0 0.00 0.31 0.00 85 1021.1
20260507151000 56 196 2.0 13.0 0.00 0.31 0.00 85 1021.2
20260507150458 56 224 2.0 13.0 0.00 0.31 0.00 85 1021.2
20260507145958 56 225 2.0 10.0 0.00 0.31 0.00 85 1021.3
20260507145458 56 266 2.0 10.0 0.00 0.31 0.00 85 1021.3
20260507144959 56 276 2.0 14.0 0.00 0.31 0.00 85 1021.2
20260507144458 56 293 2.0 14.0 0.00 0.31 0.00 85 1021.2
20260507144005 55 254 2.0 8.0 0.00 0.31 0.00 84 1021.5
20260507143959 55 262 2.0 12.0 0.00 0.31 0.00 84 1021.3
20260507143000 55 288 2.0 8.0 0.00 0.31 0.00 84 1021.5
20260507142500 55 224 2.0 11.0 0.00 0.31 0.00 84 1021.5
20260507142004 55 220 2.0 11.0 0.00 0.31 0.00 84 1021.6
20260507141959 55 289 2.0 11.0 0.00 0.31 0.00 84 1021.5
20260507140958 55 293 2.0 11.0 0.00 0.31 0.00 84 1021.6
20260507140458 55 260 2.0 13.0 0.00 0.31 0.00 84 1021.6
20260507135957 55 266 2.0 13.0 0.00 0.31 0.31 84 1021.6
20260507135459 55 270 2.0 10.0 0.00 0.31 0.31 84 1021.6
20260507134504 55 282 3.0 12.0 0.00 0.31 0.31 84 1021.7
20260507134458 55 237 2.0 8.0 0.00 0.31 0.31 84 1021.7
20260507133457 55 310 3.0 12.0 0.00 0.31 0.31 84 1021.8
20260507132955 55 241 3.0 11.0 0.00 0.31 0.31 84 1021.8
20260507132455 55 250 3.0 10.0 0.00 0.31 0.31 84 1021.9
20260507131953 55 226 2.0 7.0 0.00 0.31 0.31 84 1021.8
20260507131500 55 251 2.0 9.0 0.00 0.31 0.31 84 1022.3
20260507131455 55 235 2.0 9.0 0.00 0.31 0.31 84 1022.0
20260507130451 54 312 1.0 9.0 0.00 0.31 0.31 84 1022.4
20260507125952 54 295 2.0 9.0 0.00 0.31 0.31 84 1022.4
20260507125451 54 301 2.0 9.0 0.00 0.31 0.31 84 1022.4
20260507124951 54 243 2.0 9.0 0.00 0.31 0.31 84 1022.5
20260507124449 54 285 2.0 7.0 0.00 0.31 0.31 84 1022.5
20260507123951 54 220 2.0 6.0 0.00 0.31 0.31 83 1022.6
20260507123449 54 266 1.0 7.0 0.00 0.31 0.31 83 1022.6
20260507122949 54 307 2.0 11.0 0.00 0.31 0.31 83 1022.7
20260507122450 54 335 2.0 11.0 0.00 0.31 0.31 83 1022.8
20260507121958 54 319 2.0 10.0 0.00 0.31 0.31 82 1022.8
20260507121952 54 306 2.0 8.0 0.00 0.31 0.31 82 1022.8
20260507120951 54 249 2.0 10.0 0.00 0.31 0.31 82 1022.9
20260507120455 54 293 2.0 9.0 0.00 0.31 0.31 82 1022.9
20260507120449 54 292 2.0 9.0 0.00 0.31 0.31 82 1023.0
20260507120118 54 308 3.0 13.0 0.00 0.31 0.31 82 1022.9
20260507115616 54 301 3.0 12.0 0.00 0.31 0.31 82 1022.9
20260507114951 54 295 4.0 13.0 0.00 0.31 0.31 82 1022.9
20260507114617 54 271 2.0 10.0 0.00 0.31 0.31 82 1022.8
20260507113448 54 279 2.0 10.0 0.00 0.31 0.31 82 1022.9
20260507112948 53 285 2.0 8.0 0.00 0.31 0.31 82 1022.9
20260507112449 54 329 2.0 8.0 0.00 0.31 0.31 82 1022.9
20260507111946 54 274 3.0 10.0 0.00 0.31 0.31 82 1022.8
20260507111449 53 320 3.0 10.0 0.00 0.31 0.31 82 1022.9
20260507110948 53 298 2.0 10.0 0.00 0.31 0.31 82 1022.8
20260507110449 53 233 2.0 9.0 0.00 0.31 0.31 82 1022.8
20260507105946 53 313 3.0 9.0 0.00 0.31 0.31 82 1022.8
20260507105453 53 317 3.0 11.0 0.00 0.32 0.31 82 1022.8
20260507105447 53 276 3.0 11.0 0.00 0.32 0.31 82 1022.8
20260507104450 53 294 3.0 10.0 0.00 0.32 0.31 82 1022.9
20260507103949 53 272 3.0 11.0 0.00 0.32 0.31 82 1023.0
20260507103448 53 304 2.0 11.0 0.00 0.32 0.31 82 1023.2
20260507102948 53 274 2.0 10.0 0.00 0.32 0.31 82 1023.0
20260507102447 53 270 2.0 10.0 0.00 0.32 0.31 82 1023.1
20260507101947 53 315 2.0 9.0 0.00 0.32 0.31 81 1023.3
20260507101449 54 309 2.0 9.0 0.00 0.32 0.31 81 1023.3
20260507100948 54 270 2.0 11.0 0.00 0.32 0.31 80 1023.4
20260507100447 54 271 2.0 11.0 0.00 0.32 0.31 79 1023.4
20260507095947 54 197 2.0 10.0 0.00 0.32 0.31 78 1023.4
20260507095447 54 285 2.0 10.0 0.00 0.32 0.31 77 1023.4
20260507094947 54 297 3.0 10.0 0.00 0.33 0.31 77 1023.4
20260507094446 54 301 2.0 9.0 0.00 0.33 0.31 77 1023.3
20260507093954 54 278 2.0 9.0 0.00 0.34 0.31 76 1023.2
20260507093948 54 270 2.0 9.0 0.00 0.34 0.31 77 1023.2
20260507092948 54 185 2.0 13.0 0.00 0.35 0.31 76 1023.3
20260507092448 54 231 3.0 13.0 0.00 0.35 0.31 76 1023.2
20260507091947 54 250 3.0 10.0 0.00 0.35 0.31 75 1023.4
20260507091445 54 217 3.0 10.0 0.00 0.35 0.31 75 1023.2
20260507090947 54 245 3.0 10.0 0.00 0.35 0.31 75 1023.2
20260507090443 54 302 2.0 9.0 0.00 0.35 0.31 75 1023.1
20260507085949 54 189 2.0 7.0 0.00 0.35 0.31 75 1023.1
20260507085944 54 248 1.0 7.0 0.00 0.35 0.31 75 1023.1
20260507084941 54 239 2.0 7.0 0.00 0.35 0.31 74 1023.1
20260507084451 54 232 2.0 10.0 0.00 0.35 0.31 74 1022.9
20260507084443 54 237 2.0 7.0 0.00 0.35 0.31 74 1022.9
20260507084112 54 203 2.0 12.0 0.00 0.35 0.31 74 1022.9
20260507082944 54 203 1.0 12.0 0.00 0.35 0.31 74 1023.0
20260507082443 54 233 1.0 6.0 0.00 0.35 0.31 74 1022.8
20260507081941 55 231 2.0 10.0 0.00 0.35 0.31 74 1022.8
20260507081438 54 209 2.0 10.0 0.00 0.36 0.31 73 1022.8
20260507080945 55 196 2.0 10.0 0.00 0.41 0.31 74 1022.6
20260507080939 55 237 1.0 10.0 0.00 0.37 0.31 74 1022.8
20260507075938 55 259 2.0 10.0 0.00 0.46 0.31 74 1022.6
20260507075439 55 206 2.0 9.0 0.00 0.52 0.31 74 1022.7
20260507074939 55 189 2.0 10.0 0.00 0.53 0.31 74 1022.7
20260507074440 55 203 3.0 13.0 0.00 0.53 0.31 73 1022.7
20260507073940 55 238 4.0 13.0 0.00 0.53 0.31 73 1022.6
20260507073439 55 214 4.0 13.0 0.00 0.53 0.31 73 1022.6
20260507072943 55 245 4.0 13.0 0.00 0.53 0.31 72 1022.6
20260507072937 55 211 3.0 11.0 0.00 0.53 0.31 73 1022.5
20260507071944 55 216 5.0 14.0 0.00 0.53 0.31 71 1022.5
20260507071938 55 302 4.0 14.0 0.00 0.53 0.31 72 1022.4
20260507070938 55 218 4.0 13.0 0.00 0.53 0.31 71 1022.4
20260507070438 55 222 4.0 13.0 0.00 0.53 0.31 73 1022.4
20260507065937 55 209 4.0 13.0 0.00 0.53 0.31 73 1022.4
20260507065438 54 259 3.0 10.0 0.00 0.53 0.31 75 1022.4
20260507064934 54 202 2.0 10.0 0.00 0.53 0.31 77 1022.4
20260507064435 54 254 1.0 8.0 0.00 0.53 0.31 78 1022.5
20260507063935 54 273 2.0 11.0 0.00 0.53 0.31 77 1022.5
20260507063432 55 255 3.0 13.0 0.00 0.53 0.31 78 1022.5
20260507062934 54 175 3.0 13.0 0.00 0.53 0.31 78 1022.4
20260507062432 54 206 2.0 11.0 0.00 0.53 0.31 79 1022.5
20260507061933 54 202 1.0 11.0 0.00 0.53 0.31 80 1022.5
20260507061433 54 185 1.0 5.0 0.01 0.53 0.31 81 1022.6
20260507060934 54 224 2.0 8.0 0.01 0.53 0.31 81 1022.7
20260507060435 54 226 2.0 8.0 0.01 0.53 0.31 81 1022.7
20260507055934 54 204 2.0 8.0 0.01 0.53 0.31 81 1022.7
20260507055434 54 232 3.0 8.0 0.01 0.53 0.31 81 1022.8
20260507054933 54 185 2.0 12.0 0.01 0.53 0.31 80 1022.8
20260507054434 54 200 2.0 12.0 0.01 0.53 0.31 80 1022.7
20260507053932 54 241 1.0 6.0 0.01 0.53 0.31 79 1022.7
20260507053430 54 225 2.0 9.0 0.01 0.53 0.31 79 1022.8
20260507052932 54 227 2.0 9.0 0.01 0.53 0.31 79 1022.7
20260507052432 54 241 2.0 8.0 0.01 0.53 0.31 80 1022.8
20260507051932 53 212 2.0 8.0 0.01 0.53 0.31 80 1022.8
20260507051430 53 237 2.0 6.0 0.00 0.52 0.31 81 1022.8
20260507050932 53 251 2.0 11.0 0.00 0.52 0.31 81 1022.7
20260507050432 53 274 2.0 11.0 0.00 0.52 0.31 81 1022.7
20260507045931 53 230 3.0 9.0 0.00 0.52 0.31 81 1022.7
20260507045431 53 212 4.0 14.0 0.00 0.52 0.31 81 1022.7
20260507044937 53 206 3.0 9.0 0.00 0.52 0.31 82 1022.9
20260507044930 53 231 4.0 14.0 0.00 0.52 0.31 81 1022.8
20260507044430 53 198 4.0 13.0 0.00 0.52 0.31 81 1022.9
20260507043430 53 217 3.0 11.0 0.00 0.52 0.31 82 1022.9
20260507042931 52 230 3.0 11.0 0.00 0.52 0.31 82 1022.9
20260507042430 52 225 3.0 10.0 0.00 0.52 0.31 83 1022.9
20260507041930 52 208 3.0 10.0 0.00 0.52 0.31 84 1022.8
20260507041430 52 272 4.0 14.0 0.00 0.52 0.31 84 1022.8
20260507040930 52 205 5.0 14.0 0.00 0.52 0.31 83 1022.9
20260507040434 53 206 4.0 10.0 0.02 0.52 0.31 85 1022.8
20260507040428 53 226 5.0 20.0 0.00 0.52 0.31 83 1023.0
20260507035928 52 219 4.0 20.0 0.02 0.52 0.31 83 1022.8
20260507034928 52 214 3.0 9.0 0.03 0.52 0.31 86 1022.8
20260507034428 52 212 3.0 9.0 0.03 0.52 0.31 88 1022.9
20260507033934 52 180 2.0 9.0 0.03 0.52 0.31 89 1022.8
20260507033928 52 223 3.0 9.0 0.03 0.52 0.31 89 1022.8
20260507032930 51 215 3.0 9.0 0.03 0.52 0.31 89 1022.9
20260507032429 51 200 3.0 10.0 0.03 0.52 0.31 89 1023.1
20260507031929 51 227 3.0 10.0 0.03 0.52 0.31 88 1023.1
20260507031426 51 249 4.0 14.0 0.03 0.52 0.31 88 1023.1
20260507030926 51 227 5.0 14.0 0.03 0.52 0.31 87 1023.2
20260507030433 52 216 4.0 17.0 0.02 0.50 0.28 83 1023.3
20260507030427 51 212 5.0 18.0 0.04 0.52 0.31 85 1023.3
20260507025926 51 207 4.0 18.0 0.02 0.50 0.29 84 1023.4
20260507024927 52 222 4.0 13.0 0.01 0.49 0.28 83 1023.2
20260507024427 52 235 4.0 13.0 0.01 0.49 0.28 84 1023.1
20260507023926 52 213 3.0 12.0 0.01 0.49 0.28 86 1023.0
20260507023426 51 198 3.0 12.0 0.01 0.49 0.28 86 1023.2
20260507022928 51 252 4.0 15.0 0.01 0.49 0.28 86 1023.3
20260507022431 51 210 4.0 12.0 0.01 0.49 0.28 86 1023.3
20260507022424 51 261 4.0 15.0 0.01 0.49 0.28 87 1023.3
20260507021923 51 248 4.0 12.0 0.01 0.49 0.28 87 1023.2
20260507020932 51 239 3.0 15.0 0.00 0.48 0.27 87 1023.2
20260507020926 52 241 4.0 15.0 0.01 0.49 0.28 86 1023.3
20260507015923 51 191 3.0 12.0 0.00 0.48 0.27 89 1023.2
20260507015426 50 251 3.0 10.0 0.01 0.48 0.27 88 1023.2
20260507014924 50 237 3.0 9.0 0.01 0.48 0.27 89 1023.2
20260507014424 50 180 2.0 9.0 0.01 0.48 0.27 90 1023.1
20260507013925 49 234 3.0 10.0 0.01 0.48 0.27 90 1023.1
20260507013424 49 249 2.0 10.0 0.02 0.48 0.27 90 1023.2
20260507012926 48 277 2.0 8.0 0.02 0.48 0.27 91 1023.2
20260507012432 47 180 1.0 9.0 0.02 0.48 0.27 90 1023.3
20260507012425 48 300 1.0 8.0 0.02 0.48 0.27 91 1023.2
20260507011425 47 226 0.0 9.0 0.02 0.48 0.27 91 1023.4
20260507010923 47 330 1.0 8.0 0.04 0.48 0.27 90 1023.4
20260507010422 47 249 1.0 6.0 0.04 0.48 0.27 90 1023.3
20260507005921 47 262 2.0 10.0 0.04 0.48 0.27 90 1023.3
20260507005421 47 218 2.0 10.0 0.03 0.47 0.26 90 1023.3
20260507004930 48 185 2.0 13.0 0.03 0.47 0.26 90 1023.1
20260507004924 48 270 2.0 10.0 0.03 0.47 0.26 91 1023.2
20260507003922 47 239 2.0 13.0 0.05 0.47 0.26 90 1023.0
20260507003423 47 251 3.0 13.0 0.05 0.46 0.25 90 1023.2
20260507002921 47 242 4.0 14.0 0.05 0.46 0.25 90 1023.2
20260507002422 47 216 4.0 14.0 0.05 0.46 0.25 90 1023.3
20260507001920 47 258 3.0 14.0 0.05 0.46 0.25 90 1023.2
20260507001427 47 164 2.0 9.0 0.03 0.44 0.23 90 1022.9
20260507001421 47 229 3.0 11.0 0.04 0.46 0.24 89 1023.4
20260507000919 47 202 2.0 11.0 0.03 0.44 0.23 90 1023.3
20260507000546 47 235 3.0 10.0 0.03 0.44 0.23 90 1022.8
20260506235420 47 254 3.0 13.0 0.03 0.44 0.23 90 1022.8
20260506234920 47 175 3.0 13.0 0.05 0.44 0.23 89 1022.9
20260506234421 46 273 3.0 11.0 0.06 0.44 0.23 89 1023.1
20260506233923 47 237 1.0 8.0 0.04 0.42 0.20 89 1023.2
20260506233917 47 276 2.0 11.0 0.05 0.43 0.22 89 1023.4
20260506232915 47 269 1.0 8.0 0.05 0.42 0.20 89 1023.0